BAW25C KLAX-EGLL

Flight info

Callsign BAW25C
Flight time N/A
Altitude 35000
Route ORCKA5 LAS DCT BAWER DCT LARVE DCT EKR DCT KD75W DCT KP87A DCT KP03C DCT KP18G DCT TADIS DCT 5630N08000W DCT FEDDY DCT BERUS/M085F350 DCT CLAVY DCT 65N050W 6430N04000W 63N030W 6030N02000W DCT GOMUP/N0480F350 DCT GINGA DCT KELLY L10 WAL UY53 NUGRA
Aircraft A35K/H-SDE2E3GHIJ3J4J5LM1ORWXY/LB1D1

Departure

Time 2026-05-05 23:24
Airport Los Angeles International Airport (KLAX)

Arrival

Time N/A
Airport London Heathrow Airport (EGLL)
Time Latitude Longitude Altitude Speed Heading
2026-05-05 23:02 33.94021 -118.41077 101 ft 0 kts 83°
2026-05-05 23:10 33.94019 -118.41089 98 ft 4 kts 83°
2026-05-05 23:10 33.94016 -118.41121 98 ft 4 kts 83°
2026-05-05 23:10 33.94013 -118.41153 98 ft 4 kts 84°
2026-05-05 23:11 33.94011 -118.41179 98 ft 4 kts 126°
2026-05-05 23:11 33.94031 -118.41189 101 ft 4 kts 178°
2026-05-05 23:11 33.94057 -118.41190 98 ft 3 kts 174°
2026-05-05 23:11 33.94065 -118.41191 100 ft 0 kts 173°
2026-05-05 23:17 33.94063 -118.41190 98 ft 1 kts 173°
2026-05-05 23:17 33.94007 -118.41182 100 ft 15 kts 173°
2026-05-05 23:17 33.93903 -118.41167 100 ft 16 kts 173°
2026-05-05 23:17 33.93808 -118.41153 99 ft 9 kts 172°
2026-05-05 23:18 33.93772 -118.41102 99 ft 10 kts 101°
2026-05-05 23:18 33.93779 -118.40959 99 ft 21 kts 83°
2026-05-05 23:18 33.93798 -118.40783 102 ft 21 kts 82°
2026-05-05 23:18 33.93817 -118.40602 101 ft 22 kts 83°
2026-05-05 23:19 33.93836 -118.40415 101 ft 22 kts 83°
2026-05-05 23:19 33.93854 -118.40227 102 ft 23 kts 83°
2026-05-05 23:19 33.93875 -118.40034 102 ft 23 kts 83°
2026-05-05 23:19 33.93894 -118.39837 103 ft 24 kts 82°
2026-05-05 23:20 33.93916 -118.39630 101 ft 25 kts 83°
2026-05-05 23:20 33.93938 -118.39420 100 ft 26 kts 83°
2026-05-05 23:20 33.93961 -118.39197 99 ft 27 kts 83°
2026-05-05 23:20 33.93983 -118.38972 100 ft 27 kts 83°
2026-05-05 23:21 33.94006 -118.38743 101 ft 28 kts 83°
2026-05-05 23:21 33.94029 -118.38514 101 ft 28 kts 83°
2026-05-05 23:21 33.94054 -118.38284 101 ft 26 kts 83°
2026-05-05 23:21 33.94072 -118.38118 99 ft 19 kts 81°
2026-05-05 23:22 33.94072 -118.38018 99 ft 6 kts 127°
2026-05-05 23:22 33.94040 -118.38005 100 ft 5 kts 164°
2026-05-05 23:22 33.94003 -118.38004 99 ft 4 kts 208°
2026-05-05 23:22 33.93993 -118.38025 99 ft 3 kts 245°
2026-05-05 23:23 33.93984 -118.38060 99 ft 12 kts 259°
2026-05-05 23:23 33.93945 -118.38407 105 ft 81 kts 263°
2026-05-05 23:23 33.93845 -118.39394 104 ft 157 kts 263°
2026-05-05 23:23 33.93692 -118.40870 569 ft 189 kts 262°
2026-05-05 23:24 33.93418 -118.42528 1270 ft 212 kts 252°
2026-05-05 23:24 33.92819 -118.44166 1900 ft 217 kts 240°
2026-05-05 23:24 33.91922 -118.45705 2348 ft 232 kts 232°
2026-05-05 23:24 33.90832 -118.47205 2816 ft 244 kts 228°
2026-05-05 23:25 33.89625 -118.48717 3313 ft 256 kts 226°
2026-05-05 23:25 33.88345 -118.50260 3823 ft 265 kts 226°
2026-05-05 23:25 33.87024 -118.51859 4352 ft 274 kts 226°
2026-05-05 23:25 33.85668 -118.53512 4924 ft 281 kts 226°
2026-05-05 23:26 33.84286 -118.55207 5624 ft 282 kts 226°
2026-05-05 23:26 33.82937 -118.56864 6619 ft 273 kts 226°
2026-05-05 23:26 33.81615 -118.58483 7493 ft 269 kts 226°
2026-05-05 23:26 33.80253 -118.60043 8142 ft 275 kts 218°
2026-05-05 23:27 33.78493 -118.60982 8561 ft 282 kts 191°
2026-05-05 23:27 33.76538 -118.60888 9043 ft 286 kts 165°
2026-05-05 23:27 33.74678 -118.59977 9551 ft 291 kts 153°
2026-05-05 23:27 33.73542 -118.59116 9874 ft 293 kts 142°
2026-05-05 23:28 33.71935 -118.56468 10548 ft 302 kts 107°
2026-05-05 23:28 33.71816 -118.53945 11066 ft 308 kts 76°
2026-05-05 23:28 33.72762 -118.51650 11571 ft 311 kts 46°
2026-05-05 23:28 33.74495 -118.50096 12087 ft 316 kts 28°
2026-05-05 23:29 33.76489 -118.48920 12592 ft 323 kts 19°
2026-05-05 23:29 33.78617 -118.48070 13088 ft 330 kts 14°
2026-05-05 23:29 33.80855 -118.47332 13602 ft 337 kts 13°
2026-05-05 23:29 33.83155 -118.46639 14106 ft 344 kts 12°
2026-05-05 23:30 33.85507 -118.45961 14607 ft 351 kts 12°
2026-05-05 23:30 33.87129 -118.45504 14854 ft 358 kts 12°
2026-05-05 23:30 33.90441 -118.44502 14997 ft 384 kts 17°
2026-05-05 23:30 33.92872 -118.43026 14993 ft 399 kts 35°
2026-05-05 23:31 33.94830 -118.40645 15017 ft 401 kts 52°
2026-05-05 23:31 33.96435 -118.37890 15081 ft 402 kts 55°
2026-05-05 23:31 33.98008 -118.35069 15336 ft 407 kts 55°
2026-05-05 23:31 33.99052 -118.33200 15774 ft 407 kts 55°
2026-05-05 23:32 34.01180 -118.29412 16656 ft 409 kts 55°
2026-05-05 23:32 34.02792 -118.26563 17260 ft 412 kts 54°
2026-05-05 23:32 34.04410 -118.23703 17821 ft 415 kts 54°
2026-05-05 23:32 34.06044 -118.20814 18380 ft 418 kts 55°
2026-05-05 23:33 34.07687 -118.17908 18942 ft 421 kts 55°
2026-05-05 23:33 34.09340 -118.14983 19523 ft 424 kts 54°
2026-05-05 23:33 34.11008 -118.12029 20088 ft 427 kts 54°
2026-05-05 23:33 34.12116 -118.10067 20461 ft 429 kts 54°
2026-05-05 23:34 34.14379 -118.06061 21155 ft 433 kts 54°
2026-05-05 23:34 34.16079 -118.03039 21699 ft 436 kts 54°
2026-05-05 23:34 34.17788 -118.00001 22243 ft 439 kts 54°
2026-05-05 23:34 34.19510 -117.96939 22747 ft 443 kts 54°
2026-05-05 23:35 34.21248 -117.93847 23247 ft 446 kts 54°
2026-05-05 23:35 34.22995 -117.90735 23748 ft 449 kts 54°
2026-05-05 23:35 34.24753 -117.87600 24258 ft 452 kts 54°
2026-05-05 23:35 34.26521 -117.84447 24726 ft 454 kts 54°
2026-05-05 23:36 34.28304 -117.81263 25154 ft 458 kts 54°
2026-05-05 23:36 34.30098 -117.78060 25584 ft 462 kts 54°
2026-05-05 23:36 34.31293 -117.75923 25870 ft 464 kts 54°
2026-05-05 23:36 34.33699 -117.71614 26412 ft 468 kts 54°
2026-05-05 23:37 34.34934 -117.69402 26701 ft 470 kts 54°
2026-05-05 23:37 34.36811 -117.66142 27099 ft 473 kts 53°
2026-05-05 23:37 34.38729 -117.62960 27491 ft 476 kts 52°
2026-05-05 23:37 34.40691 -117.59715 27871 ft 479 kts 52°
2026-05-05 23:38 34.42659 -117.56441 28248 ft 482 kts 52°
2026-05-05 23:38 34.44631 -117.53146 28622 ft 484 kts 53°
2026-05-05 23:38 34.46611 -117.49830 28967 ft 487 kts 52°
2026-05-05 23:38 34.48602 -117.46488 29294 ft 490 kts 53°
2026-05-05 23:39 34.50626 -117.43084 29621 ft 493 kts 53°
2026-05-05 23:39 34.52611 -117.39743 29939 ft 495 kts 53°
2026-05-05 23:39 34.54626 -117.36348 30300 ft 495 kts 53°
2026-05-05 23:39 34.56636 -117.32956 30686 ft 496 kts 53°
2026-05-05 23:40 34.58654 -117.29548 30985 ft 497 kts 53°
2026-05-05 23:40 34.60673 -117.26135 31264 ft 499 kts 53°
2026-05-05 23:40 34.62700 -117.22705 31581 ft 500 kts 53°
2026-05-05 23:40 34.64729 -117.19269 31857 ft 501 kts 53°
2026-05-05 23:41 34.66764 -117.15819 32136 ft 503 kts 53°
2026-05-05 23:41 34.68807 -117.12353 32386 ft 504 kts 53°
2026-05-05 23:41 34.70847 -117.08888 32649 ft 505 kts 53°
2026-05-05 23:41 34.72898 -117.05402 32917 ft 506 kts 53°
2026-05-05 23:42 34.74947 -117.01914 33169 ft 507 kts 53°
2026-05-05 23:42 34.76997 -116.98420 33381 ft 508 kts 53°
2026-05-05 23:42 34.79056 -116.94910 33611 ft 509 kts 54°
2026-05-05 23:42 34.81115 -116.91395 33834 ft 510 kts 54°
2026-05-05 23:43 34.83184 -116.87860 34051 ft 511 kts 54°
2026-05-05 23:43 34.85249 -116.84329 34259 ft 512 kts 54°
2026-05-05 23:43 34.87314 -116.80795 34481 ft 512 kts 54°
2026-05-05 23:43 34.89379 -116.77255 34672 ft 513 kts 54°
2026-05-05 23:44 34.91470 -116.73729 34867 ft 514 kts 51°
2026-05-05 23:44 34.93794 -116.70402 34917 ft 517 kts 46°
2026-05-05 23:44 34.98705 -116.63933 34915 ft 519 kts 46°
2026-05-05 23:45 35.03584 -116.57518 34907 ft 519 kts 46°
2026-05-05 23:45 35.08493 -116.51043 34905 ft 518 kts 46°
2026-05-05 23:46 35.13379 -116.44580 34897 ft 517 kts 46°
2026-05-05 23:46 35.18264 -116.38105 34897 ft 517 kts 46°
2026-05-05 23:47 35.23136 -116.31637 34896 ft 515 kts 47°
2026-05-05 23:47 35.27954 -116.25228 34897 ft 514 kts 47°
2026-05-05 23:48 35.32789 -116.18785 34897 ft 513 kts 47°
2026-05-05 23:48 35.37609 -116.12347 34889 ft 512 kts 47°
2026-05-05 23:49 35.42414 -116.05918 34887 ft 510 kts 47°
2026-05-05 23:49 35.47211 -115.99488 34888 ft 510 kts 47°
2026-05-05 23:50 35.52006 -115.93046 34889 ft 513 kts 47°
2026-05-05 23:50 35.56792 -115.86607 34887 ft 513 kts 47°
2026-05-05 23:51 35.61601 -115.80122 34887 ft 512 kts 47°
2026-05-05 23:51 35.66387 -115.73622 34888 ft 512 kts 48°
2026-05-05 23:52 35.71137 -115.67074 34888 ft 512 kts 48°
2026-05-05 23:52 35.75880 -115.60533 34888 ft 512 kts 48°
2026-05-05 23:53 35.80626 -115.53982 34888 ft 513 kts 48°